Preview of NWS' New Version of Forecast
This preview is not operational and should not be used for support decisions.

Regional Weather Roundup (RWR)

Issued by National Weather Service (NWS)

                            
000
ASUS46 KPQR 210810
RWROR 

OREGON REGIONAL WEATHER ROUNDUP
NATIONAL WEATHER SERVICE PORTLAND OR
100 AM PDT WED AUG 21 2019

NOTE: "FAIR" INDICATES FEW OR NO CLOUDS BELOW 12,000 FEET WITH
NO SIGNIFICANT WEATHER AND/OR OBSTRUCTIONS TO VISIBILITY.

ORZ001>013-210900-
NORTHWEST OREGON

  
CITY           SKY/WX    TMP DP  RH WIND       PRES   REMARKS
ASTORIA        PTCLDY    59  54  83 SE5       30.00R                  
TILLAMOOK      CLEAR     54  52  94 CALM      30.05R                  
NEWPORT        CLEAR     55  54  94 SE6       30.07F                  
FLORENCE       FAIR      55  54  94 CALM      30.05S                  
PORTLAND       CLEAR     65  53  65 S7        30.03S                  
VANCOUVER WA   CLEAR     66  53  63 CALM      30.02S                  
SCAPPOOSE      CLEAR     56  55  97 W3        30.01S                  
HILLSBORO      CLEAR     53  50  89 CALM      30.03R                  
AURORA         CLEAR     60  52  74 S3        30.05R                  
MCMINNVILLE    CLEAR     56  51  84 CALM      30.04R                  
SALEM          CLEAR     55  50  83 SE5       30.04S                  
CORVALLIS      CLEAR     55  52  89 CALM      30.06S                  
EUGENE         CLEAR     57  50  77 SW3       30.06S                  
CRESWELL       CLEAR     55  52  88 CALM      30.05S                  
$$

ORZ021-028-210900-
SOUTHWEST OREGON

  
CITY           SKY/WX    TMP DP  RH WIND       PRES   REMARKS
NORTH BEND     PTCLDY    58  55  90 SE7       30.06F                  
BROOKINGS      PTCLDY    56  53  90 CALM      30.07S                  
ROSEBURG       CLEAR     61  53  75 CALM      30.06S                  
SEXTON SUMMIT  CLEAR     59  40  49 NW6       30.14S                  
GRANTS PASS    FAIR      61  48  63 CALM      30.09R                  
MEDFORD        CLEAR     69  45  41 W7        30.04R                  
$$

ORZ014>016-041-210900-
COLUMBIA GORGE

  
CITY           SKY/WX    TMP DP  RH WIND       PRES   REMARKS
TROUTDALE      CLEAR     65  53  65 S5        30.03S                  
HOOD RIVER     PTCLDY    68  52  56 W16G23    29.99S                  
THE DALLES     PTCLDY    72  52  49 W16       29.95R                  
$$

ORZ029>031-041-044-049-050-061>064-502-503-505>511-210900-
EASTERN OREGON

  
CITY           SKY/WX    TMP DP  RH WIND       PRES   REMARKS
MADRAS         MOCLDY    64  52  63 CALM      30.05S                  
REDMOND        PTCLDY    61  49  64 S5        30.06S                  
BEND           PTCLDY    63  52  67 S5        30.08S                  
PRINEVILLE     MOCLDY    63  52  67 W5        30.06S                  
KLAMATH FALLS  CLEAR     55  48  77 CALM      30.13R                  
LAKEVIEW       PTCLDY    56  36  47 SE6       30.17S                  
HERMISTON      PTCLDY    74  52  46 SW12      29.90R                  
PENDLETON      MOCLDY    75  49  39 SW13G21   29.95R                  
JOHN DAY       MOCLDY    71  45  39 W7        30.07R                  
MEACHAM        CLOUDY    57  46  66 CALM      30.08S                  
LA GRANDE      CLOUDY    75  48  38 NW15      30.00R                  
BAKER CITY     MOCLDY    65  49  56 W3        30.02R                  
BURNS          MOCLDY    63  32  31 NW7       30.07R                  
ROME             N/A     66  28  24 S7        30.03R                  
ONTARIO        CLEAR     68  52  56 W7        29.90R                  
$$